EW6519 Weather Reports


Display with metric or nautical units.
time (UTC)temp
F
wind
direction
speed
MPH
gust
MPH
rain 1hr
in
rain 24hr
in
rain mn
in
humidity
%
barometer
mb
20260502163013 52 285 1.0 8.0 0.00 0.00 0.00 50 1017.5
20260502161511 54 278 3.0 8.0 0.00 0.00 0.00 51 1017.6
20260502151614 49 300 0.0 5.0 0.00 0.00 0.00 52 1018.0
20260502123008 42 300 0.0 4.0 0.00 0.00 0.00 73 1017.6
20260502121507 41 311 0.0 0.0 0.00 0.00 0.00 78 1017.5
20260502114504 40 25 0.0 0.0 0.00 0.00 0.00 78 1017.2
20260502113004 38 306 0.0 0.0 0.00 0.00 0.00 87 1016.9
20260502111503 37 306 0.0 0.0 0.00 0.00 0.00 88 1016.9
20260502110003 37 306 0.0 0.0 0.00 0.00 0.00 88 1016.9
20260502104502 37 306 0.0 0.0 0.00 0.00 0.00 89 1017.0
20260502103001 37 306 0.0 0.0 0.00 0.00 0.00 88 1017.0
20260502101611 37 306 0.0 0.0 0.00 0.00 0.00 88 1017.0
20260502070100 41 353 0.0 0.0 0.00 0.00 0.00 77 1016.5
20260502064545 42 358 0.0 0.0 0.00 0.00 0.00 77 1016.5
20260502063037 42 293 0.0 0.0 0.00 0.00 0.00 76 1016.9
20260502061534 42 11 0.0 0.0 0.00 0.00 0.00 76 1017.0
20260502060133 42 27 0.0 0.0 0.00 0.00 0.00 78 1017.1
20260502054541 42 38 0.0 0.0 0.00 0.00 0.00 79 1017.3
20260502053029 43 6 0.0 0.0 0.00 0.00 0.00 78 1017.0
20260502051527 43 6 0.0 0.0 0.00 0.00 0.00 77 1016.9
20260502050025 43 6 0.0 0.0 0.00 0.00 0.00 77 1017.1
20260502044524 43 52 0.0 0.0 0.00 0.00 0.00 76 1017.1
20260502043023 44 52 0.0 0.0 0.00 0.00 0.00 75 1017.2
20260502041531 44 53 0.0 0.0 0.00 0.00 0.00 74 1017.3
20260502040039 45 1 0.0 0.0 0.00 0.00 0.00 73 1017.1
20260502034516 45 46 0.0 0.0 0.00 0.00 0.00 73 1017.1
20260502033026 45 25 0.0 0.0 0.00 0.00 0.00 72 1017.2
20260502031513 46 317 0.0 0.0 0.00 0.00 0.00 70 1017.1
20260502030013 46 317 0.0 0.0 0.00 0.00 0.00 70 1017.1
20260502024512 46 317 0.0 0.0 0.00 0.00 0.00 69 1017.0
20260502023020 46 317 0.0 0.0 0.00 0.00 0.00 68 1016.9
20260502021508 46 283 0.0 0.0 0.00 0.00 0.00 69 1016.7
20260502020005 47 283 0.0 0.0 0.00 0.00 0.00 67 1016.5
20260502014503 47 283 0.0 0.0 0.00 0.00 0.00 66 1016.2
20260502013002 47 283 0.0 0.0 0.00 0.00 0.00 66 1016.0
20260502011502 47 283 0.0 0.0 0.00 0.00 0.00 65 1016.0
20260502010100 48 283 0.0 0.0 0.00 0.00 0.00 63 1015.6
20260502004557 49 283 0.0 0.0 0.00 0.00 0.00 60 1015.5
20260502003053 49 296 0.0 3.0 0.00 0.00 0.00 59 1014.9
20260502001600 50 297 0.0 0.0 0.00 0.00 0.00 59 1014.4
20260501234552 51 303 0.0 4.0 0.00 0.00 0.00 55 1014.5
20260501233106 52 285 0.0 7.0 0.00 0.00 0.00 54 1014.8
20260501231609 52 287 1.0 3.0 0.00 0.00 0.00 55 1014.6
20260501230117 52 352 0.0 0.0 0.00 0.00 0.00 56 1014.7
20260501224556 52 353 1.0 7.0 0.00 0.00 0.00 56 1014.6
20260501223053 52 39 2.0 11.0 0.00 0.00 0.00 56 1014.4
20260501221555 52 35 0.0 9.0 0.00 0.00 0.00 58 1014.5
20260501220047 52 297 1.0 6.0 0.00 0.00 0.00 57 1014.4
20260501214546 53 281 4.0 11.0 0.00 0.00 0.00 56 1014.5
20260501213044 54 3 4.0 9.0 0.00 0.00 0.00 55 1014.3
20260501211544 53 62 2.0 8.0 0.00 0.00 0.00 59 1014.2
20260501210043 54 319 3.0 9.0 0.00 0.00 0.00 57 1014.2
20260501204545 54 291 4.0 11.0 0.00 0.00 0.00 57 1014.2
20260501203041 54 308 0.0 5.0 0.00 0.00 0.00 56 1014.1
20260501201542 54 288 1.0 9.0 0.00 0.00 0.00 58 1014.1
20260501200040 54 287 3.0 13.0 0.00 0.00 0.00 56 1014.1
20260501194540 54 283 1.0 9.0 0.00 0.00 0.00 57 1013.9
20260501193040 56 302 4.0 9.0 0.00 0.00 0.00 55 1013.8
20260501191538 56 278 2.0 7.0 0.00 0.00 0.00 57 1013.8
20260501190038 55 307 2.0 11.0 0.00 0.00 0.00 57 1013.7
20260501184538 55 252 3.0 9.0 0.00 0.00 0.00 58 1013.7
20260501183037 55 287 0.0 10.0 0.00 0.00 0.00 57 1013.6
20260501181535 56 290 2.0 13.0 0.00 0.00 0.00 56 1013.4
20260501180034 57 246 2.0 7.0 0.00 0.00 0.00 59 1013.4
20260501174537 54 272 0.0 7.0 0.00 0.00 0.00 65 1013.5
20260501173031 56 217 2.0 10.0 0.00 0.00 0.00 62 1013.2
20260501171531 53 261 1.0 5.0 0.00 0.00 0.00 64 1013.1